Regional Weather Roundup
Issued by NWS

Home | Current Version | Previous Version | Graphics & Text | Print | Product List | Glossary On
Versions: 1 2 3 4 5 6 7 8 9 10 11 12 13 14 15 16 17 18 19 20 21 22 23 24 25 26 27 28 29 30 31 32 33 34 35 36 37 38 39 40 41 42 43 44 45 46 47 48 49 50
216
ASUS43 KBIS 230610
RWRND

NORTH DAKOTA REGIONAL WEATHER ROUNDUP
NATIONAL WEATHER SERVICE BISMARCK ND
1200 AM CST THU FEB 23 2017

NOTE: "FAIR" INDICATES FEW OR NO CLOUDS BELOW 12,000 FEET WITH NO
SIGNIFICANT WEATHER AND/OR OBSTRUCTIONS TO VISIBILITY.


NDZ001>003-009>011-017-230700-
NORTHWEST NORTH DAKOTA

CITY           SKY/WX    TMP DP  RH WIND       PRES   REMARKS
WILLISTON      CLOUDY    28  25  88 SW6       30.01S
6HR MIN TEMP:  27; 6HR MAX TEMP:  32; 6HR PCP: TRACE;

MINOT          CLOUDY    33  28  81 W9        29.97S
MINOT AFB      CLOUDY    31  28  90 NW7       29.97R
$$

NDZ018>021-031>035-040>046-230700-
SOUTHWEST NORTH DAKOTA

CITY           SKY/WX    TMP DP  RH WIND       PRES   REMARKS
BISMARCK       FAIR      31  25  78 N5        30.00S
6HR MIN TEMP:  31; 6HR MAX TEMP:  34;

DICKINSON      CLOUDY    25  22  88 N6        29.94F WCI  18
GARRISON         N/A     27  24  89 NW8       29.98R WCI  19
6HR MIN TEMP:  25; 6HR MAX TEMP:  31;

HETTINGER ARPT CLOUDY    27  24  89 NE8       29.97R WCI  19
$$

NDZ004>008-012>016-024-026-027-054-230700-
NORTHEAST NORTH DAKOTA

CITY           SKY/WX    TMP DP  RH WIND       PRES   REMARKS
GRAND FORKS    MOCLDY    29  21  72 NW8       29.97R
GRND FRKS AFB  CLEAR     28  24  83 N8        29.97S WCI  20
DEVILS LAKE    FAIR      27  24  89 NW8       29.97S WCI  19
$$

NDZ022-023-025-028>030-036>039-047>053-230700-
SOUTHEAST NORTH DAKOTA

CITY           SKY/WX    TMP DP  RH WIND       PRES   REMARKS
FARGO          CLEAR     31  27  85 N13       29.95R
6HR MIN TEMP:  30; 6HR MAX TEMP:  34;

JAMESTOWN      FAIR      27  25  92 NW7       29.96R WCI  19
$$





USA.gov is the U.S. government's official web portal to all federal, state and local government web resources and services.